StationID,Date,MaxTemp,MinTemp,Precipitation,Snowfall,SnowDepth
"CA001096775","1965-08-01",89.96,48.92,0.00,0.00,
"CA001096775","1965-08-02",86.00,39.92,0.00,0.00,
"CA001096775","1965-08-03",78.98,62.06,0.00,0.00,
"CA001096775","1965-08-04",77.00,44.96,38.00,0.00,
"CA001096775","1965-08-05",64.94,53.96,13.00,0.00,
"CA001096775","1965-08-06",75.02,44.06,0.00,0.00,
"CA001096775","1965-08-07",80.06,51.08,33.00,0.00,
"CA001096775","1965-08-08",80.06,53.96,0.00,0.00,
"CA001096775","1965-08-09",75.02,44.06,0.00,0.00,
"CA001096775","1965-08-10",71.96,39.92,13.00,0.00,
"CA001096775","1965-08-11",78.08,42.08,0.00,0.00,
"CA001096775","1965-08-12",62.96,44.96,163.00,0.00,
"CA001096775","1965-08-13",66.02,48.92,5.00,0.00,
"CA001096775","1965-08-14",69.98,42.98,0.00,0.00,
"CA001096775","1965-08-15",75.92,41.00,0.00,0.00,
"CA001096775","1965-08-16",73.04,39.92,0.00,0.00,
"CA001096775","1965-08-17",78.08,44.96,0.00,0.00,
"CA001096775","1965-08-18",80.06,44.06,0.00,0.00,
"CA001096775","1965-08-19",82.94,42.98,0.00,0.00,
"CA001096775","1965-08-20",78.98,53.06,0.00,0.00,
"CA001096775","1965-08-21",78.08,42.08,0.00,0.00,
"CA001096775","1965-08-22",78.98,48.92,0.00,0.00,
"CA001096775","1965-08-23",73.04,46.04,25.00,0.00,
"CA001096775","1965-08-24",71.96,44.96,30.00,0.00,
"CA001096775","1965-08-25",57.02,53.06,104.00,0.00,
"CA001096775","1965-08-26",62.96,46.94,69.00,0.00,
"CA001096775","1965-08-27",51.08,35.06,86.00,0.00,
"CA001096775","1965-08-28",55.04,37.94,152.00,0.00,
"CA001096775","1965-08-29",59.00,37.04,0.00,0.00,
"CA001096775","1965-08-30",68.00,42.08,0.00,0.00,
"CA001096775","1965-08-31",75.02,35.06,58.00,0.00,
"CA001096775","1965-09-01",62.96,44.96,0.00,0.00,
"CA001096775","1965-09-02",62.06,48.02,0.00,0.00,
"CA001096775","1965-09-03",60.98,37.04,0.00,0.00,
"CA001096775","1965-09-04",62.96,39.92,0.00,0.00,
"CA001096775","1965-09-05",64.94,37.94,0.00,0.00,
"CA001096775","1965-09-06",64.04,37.04,0.00,0.00,
"CA001096775","1965-09-07",71.06,28.04,0.00,0.00,
"CA001096775","1965-09-08",64.94,41.00,0.00,0.00,
"CA001096775","1965-09-09",62.96,37.04,0.00,0.00,
"CA001096775","1965-09-10",59.00,30.92,0.00,0.00,
"CA001096775","1965-09-11",57.02,28.04,0.00,0.00,
"CA001096775","1965-09-12",57.92,30.02,20.00,0.00,
"CA001096775","1965-09-13",48.92,44.96,18.00,0.00,
"CA001096775","1965-09-14",44.96,35.06,84.00,0.00,
"CA001096775","1965-09-15",44.96,24.08,0.00,0.00,
"CA001096775","1965-09-16",53.06,26.96,0.00,0.00,
"CA001096775","1965-09-17",59.00,28.94,0.00,0.00,
"CA001096775","1965-09-18",62.96,33.08,0.00,0.00,
"CA001096775","1965-09-19",62.06,35.96,20.00,0.00,
"CA001096775","1965-09-20",64.94,37.94,0.00,0.00,
"CA001096775","1965-09-21",62.96,55.94,0.00,0.00,
"CA001096775","1965-09-22",62.06,42.98,0.00,0.00,
"CA001096775","1965-09-23",73.04,33.98,0.00,0.00,
"CA001096775","1965-09-24",73.04,35.96,0.00,0.00,
"CA001096775","1965-09-25",69.98,32.00,0.00,0.00,
"CA001096775","1965-09-26",68.00,28.94,0.00,0.00,
"CA001096775","1965-09-27",60.98,26.96,0.00,0.00,
"CA001096775","1965-09-28",60.98,26.06,0.00,0.00,
"CA001096775","1965-09-29",57.02,37.04,0.00,0.00,
"CA001096775","1965-09-30",62.06,44.96,0.00,0.00,
"CA001096775","1965-10-01",57.02,30.92,0.00,0.00,
"CA001096775","1965-10-02",60.08,44.96,0.00,0.00,
"CA001096775","1965-10-03",64.94,39.92,0.00,0.00,
"CA001096775","1965-10-04",59.00,30.92,0.00,0.00,
"CA001096775","1965-10-05",55.94,28.04,69.00,0.00,
"CA001096775","1965-10-06",60.08,30.92,10.00,0.00,
"CA001096775","1965-10-07",48.02,33.98,20.00,0.00,
"CA001096775","1965-10-08",51.08,35.06,10.00,0.00,
"CA001096775","1965-10-09",48.02,33.98,0.00,0.00,
"CA001096775","1965-10-10",50.00,30.92,0.00,0.00,
"CA001096775","1965-10-11",51.98,33.98,23.00,0.00,
"CA001096775","1965-10-12",48.02,21.02,30.00,0.00,
"CA001096775","1965-10-13",46.94,32.00,0.00,0.00,
"CA001096775","1965-10-14",46.94,35.06,86.00,0.00,
"CA001096775","1965-10-15",44.96,32.00,0.00,0.00,
"CA001096775","1965-10-16",50.00,33.08,0.00,0.00,
"CA001096775","1965-10-17",48.92,32.00,0.00,0.00,
"CA001096775","1965-10-18",46.04,24.98,0.00,0.00,
"CA001096775","1965-10-19",42.08,19.94,0.00,0.00,
"CA001096775","1965-10-20",53.06,32.00,0.00,0.00,
"CA001096775","1965-10-21",62.96,35.06,0.00,0.00,
"CA001096775","1965-10-22",68.00,24.98,0.00,0.00,
"CA001096775","1965-10-23",55.94,28.94,0.00,0.00,
"CA001096775","1965-10-24",60.98,35.96,0.00,0.00,
"CA001096775","1965-10-25",57.92,28.94,0.00,0.00,
"CA001096775","1965-10-26",57.02,28.04,0.00,0.00,
"CA001096775","1965-10-27",53.96,28.04,0.00,0.00,
"CA001096775","1965-10-28",55.94,26.96,8.00,0.00,
"CA001096775","1965-10-29",41.00,30.02,58.00,0.00,
"CA001096775","1965-10-30",37.94,24.98,0.00,0.00,
"CA001096775","1965-10-31",44.06,28.04,0.00,0.00,
"CA001096775","1965-11-01",51.08,30.02,,0.00,
"CA001096775","1965-11-02",44.96,30.02,0.00,0.00,
"CA001096775","1965-11-03",46.04,24.08,0.00,0.00,
"CA001096775","1965-11-04",39.92,28.04,0.00,0.00,
"CA001096775","1965-11-05",44.06,23.00,0.00,0.00,
"CA001096775","1965-11-06",42.98,19.04,0.00,0.00,
"CA001096775","1965-11-07",33.08,24.98,0.00,0.00,
"CA001096775","1965-11-08",33.08,24.08,,,
"CA001096775","1965-11-09",37.04,21.92,0.00,0.00,
"CA001096775","1965-11-10",32.00,28.94,0.00,0.00,
"CA001096775","1965-11-11",35.06,24.08,13.00,13.00,
"CA001096775","1965-11-12",30.02,6.08,0.00,0.00,
"CA001096775","1965-11-13",28.94,6.08,,,
"CA001096775","1965-11-14",30.02,8.06,0.00,0.00,
"CA001096775","1965-11-15",32.00,8.06,0.00,0.00,
"CA001096775","1965-11-16",32.00,6.08,0.00,0.00,
"CA001096775","1965-11-17",33.08,12.02,0.00,0.00,
"CA001096775","1965-11-18",32.00,28.04,18.00,18.00,
"CA001096775","1965-11-19",33.08,28.94,0.00,0.00,
"CA001096775","1965-11-20",33.98,21.02,0.00,0.00,
"CA001096775","1965-11-21",30.92,21.92,8.00,8.00,
"CA001096775","1965-11-22",24.08,12.02,0.00,0.00,
"CA001096775","1965-11-23",10.94,8.06,8.00,8.00,
"CA001096775","1965-11-24",6.98,-9.94,0.00,0.00,
"CA001096775","1965-11-25",12.92,-13.00,0.00,0.00,
"CA001096775","1965-11-26",5.00,-9.94,,,
"CA001096775","1965-11-27",30.02,-2.02,0.00,0.00,
"CA001096775","1965-11-28",41.00,24.08,0.00,0.00,
"CA001096775","1965-11-29",26.06,24.98,0.00,0.00,
"CA001096775","1965-11-30",33.08,21.92,0.00,0.00,
"CA001096775","1965-12-01",39.02,12.02,,,
"CA001096775","1965-12-02",39.02,12.92,,,
"CA001096775","1965-12-03",42.08,26.06,,,
"CA001096775","1965-12-04",37.04,17.96,,,
"CA001096775","1965-12-05",39.92,19.04,,,
"CA001096775","1965-12-06",37.04,24.98,,,
"CA001096775","1965-12-07",39.92,24.08,,,
"CA001096775","1965-12-08",35.96,21.92,,,
"CA001096775","1965-12-09",35.06,12.02,,,
"CA001096775","1965-12-10",37.94,30.02,,,
"CA001096775","1965-12-11",33.98,28.04,,,
"CA001096775","1965-12-12",26.96,17.96,,,
"CA001096775","1965-12-13",21.92,14.00,,,
"CA001096775","1965-12-14",19.04,6.98,,,
"CA001096775","1965-12-15",28.04,1.94,,,
"CA001096775","1965-12-16",30.02,-0.04,,,
"CA001096775","1965-12-17",26.06,8.06,,,
"CA001096775","1965-12-18",35.96,14.00,,,
"CA001096775","1965-12-19",39.92,28.04,,,
"CA001096775","1965-12-20",37.94,26.06,,,
"CA001096775","1965-12-21",28.94,8.96,,,
"CA001096775","1965-12-22",21.92,-0.94,,,
"CA001096775","1965-12-23",,-0.04,,,
"CA001096775","1966-01-01",,,0.00,0.00,
"CA001096775","1966-01-02",,,0.00,0.00,
"CA001096775","1966-01-03",,,0.00,0.00,
"CA001096775","1966-01-04",-11.92,-25.06,64.00,64.00,
"CA001096775","1966-01-05",-14.08,-36.04,0.00,0.00,
"CA001096775","1966-01-06",-0.04,-20.92,76.00,76.00,
"CA001096775","1966-01-07",-5.08,-7.06,13.00,13.00,
"CA001096775","1966-01-08",8.06,-9.94,0.00,0.00,
"CA001096775","1966-01-09",6.08,-0.04,8.00,8.00,
"CA001096775","1966-01-10",10.04,-0.04,0.00,0.00,
"CA001096775","1966-01-11",24.98,-0.04,8.00,8.00,
"CA001096775","1966-01-12",37.94,3.92,0.00,0.00,
"CA001096775","1966-01-13",35.96,28.94,0.00,0.00,
"CA001096775","1966-01-14",37.04,14.00,0.00,0.00,
"CA001096775","1966-01-15",28.94,-4.00,0.00,0.00,
"CA001096775","1966-01-16",24.98,1.04,0.00,0.00,
"CA001096775","1966-01-17",15.98,-2.02,0.00,0.00,
"CA001096775","1966-01-18",6.08,1.04,0.00,0.00,
"CA001096775","1966-01-19",5.00,-4.00,76.00,76.00,
"CA001096775","1966-01-20",12.02,-0.04,51.00,51.00,
"CA001096775","1966-01-21",,8.06,51.00,51.00,
"CA001096775","1966-01-22",14.00,6.98,25.00,25.00,
"CA001096775","1966-01-23",6.98,-5.08,0.00,0.00,
"CA001096775","1966-01-24",10.04,-34.96,8.00,8.00,
"CA001096775","1966-01-25",15.98,-0.04,25.00,25.00,
"CA001096775","1966-01-26",5.00,-0.04,51.00,51.00,
"CA001096775","1966-01-27",5.00,-0.04,0.00,0.00,
"CA001096775","1966-01-28",21.92,-0.94,0.00,0.00,
"CA001096775","1966-01-29",30.92,3.92,58.00,58.00,
"CA001096775","1966-01-30",33.98,28.04,0.00,0.00,
"CA001096775","1966-01-31",28.94,24.08,0.00,0.00,
"CA001096775","1966-02-01",26.96,12.02,0.00,0.00,
"CA001096775","1966-02-02",23.00,19.94,0.00,0.00,
"CA001096775","1966-02-03",28.04,-2.02,0.00,0.00,
"CA001096775","1966-02-04",35.06,3.02,0.00,0.00,
"CA001096775","1966-02-05",37.04,17.06,0.00,0.00,
"CA001096775","1966-02-06",33.98,,0.00,0.00,
"CA001096775","1966-02-07",33.98,6.98,0.00,0.00,
"CA001096775","1966-02-08",30.02,8.06,0.00,0.00,
"CA001096775","1966-02-09",33.98,6.08,0.00,0.00,
"CA001096775","1966-02-10",28.94,,0.00,0.00,
"CA001096775","1966-02-11",30.92,10.94,0.00,0.00,
"CA001096775","1966-02-12",37.94,-2.92,0.00,0.00,
"CA001096775","1966-02-13",32.00,24.08,0.00,0.00,
"CA001096775","1966-02-14",28.04,17.06,0.00,0.00,
"CA001096775","1966-02-15",35.96,-5.98,43.00,43.00,
"CA001096775","1966-02-16",39.92,26.96,0.00,0.00,
"CA001096775","1966-02-17",39.02,28.04,0.00,0.00,
"CA001096775","1966-02-18",33.98,6.98,0.00,0.00,
"CA001096775","1966-02-19",33.98,12.02,0.00,0.00,
"CA001096775","1966-02-20",44.06,10.04,0.00,0.00,
"CA001096775","1966-02-21",39.92,10.04,0.00,0.00,
"CA001096775","1966-02-22",42.08,33.98,0.00,0.00,
"CA001096775","1966-02-23",46.94,10.94,0.00,0.00,
"CA001096775","1966-02-24",37.04,12.02,0.00,0.00,
"CA001096775","1966-02-25",39.92,15.98,0.00,0.00,
"CA001096775","1966-02-26",37.94,8.06,38.00,38.00,
"CA001096775","1966-02-27",30.02,6.08,0.00,0.00,
"CA001096775","1966-02-28",21.92,1.04,0.00,0.00,
"CA001096775","1966-10-16",50.00,,,,
"CA001096775","1966-10-17",41.00,23.00,0.00,0.00,
"CA001096775","1966-10-18",50.00,33.08,0.00,0.00,
"CA001096775","1966-10-19",48.92,26.96,69.00,69.00,
"CA001096775","1966-10-20",48.02,30.02,51.00,51.00,
"CA001096775","1966-10-21",39.02,26.06,0.00,0.00,
"CA001096775","1966-10-22",39.92,15.98,0.00,0.00,
"CA001096775","1966-10-23",62.06,28.04,0.00,0.00,
"CA001096775","1966-10-24",57.92,39.02,0.00,0.00,
"CA001096775","1966-10-25",42.08,28.04,0.00,0.00,
"CA001096775","1966-10-26",51.98,28.94,0.00,0.00,
"CA001096775","1966-10-27",41.00,26.06,0.00,0.00,
"CA001096775","1966-10-28",44.96,19.04,0.00,0.00,
"CA001096775","1966-10-29",51.98,30.92,0.00,0.00,
"CA001096775","1966-10-30",42.98,26.96,0.00,0.00,
"CA001096775","1966-10-31",44.06,28.04,0.00,0.00,
"CA001096775","1966-11-01",59.00,26.96,0.00,0.00,
"CA001096775","1966-11-02",44.06,19.94,18.00,18.00,
"CA001096775","1966-11-03",44.06,32.00,0.00,0.00,
"CA001096775","1966-11-04",42.08,28.94,0.00,0.00,
"CA001096775","1966-11-05",39.92,19.94,0.00,0.00,
"CA001096775","1966-11-06",28.04,12.02,5.00,5.00,
"CA001096775","1966-11-07",26.96,17.06,48.00,48.00,
"CA001096775","1966-11-08",24.08,5.00,5.00,5.00,
"CA001096775","1966-11-09",35.06,3.92,0.00,0.00,
"CA001096775","1966-11-10",30.02,1.04,0.00,0.00,
"CA001096775","1966-11-11",28.04,-2.92,0.00,0.00,
"CA001096775","1966-11-12",35.06,12.02,0.00,0.00,
"CA001096775","1966-11-13",33.98,10.94,0.00,0.00,
"CA001096775","1966-11-14",24.08,17.06,0.00,0.00,
"CA001096775","1966-11-15",17.06,12.02,0.00,0.00,
"CA001096775","1966-11-16",21.02,14.00,0.00,0.00,
"CA001096775","1966-11-17",26.06,15.08,0.00,0.00,
"CA001096775","1966-11-18",35.06,15.08,28.00,28.00,
"CA001096775","1966-11-19",39.92,21.92,0.00,0.00,
"CA001096775","1966-11-20",33.98,26.06,28.00,28.00,
"CA001096775","1966-11-21",23.00,17.06,0.00,0.00,
"CA001096775","1966-11-22",19.94,-9.04,0.00,0.00,
"CA001096775","1966-11-23",28.94,17.96,8.00,8.00,
"CA001096775","1966-11-24",44.06,26.06,0.00,0.00,
"CA001096775","1966-11-25",35.96,30.02,0.00,0.00,
"CA001096775","1966-11-26",37.04,12.92,0.00,0.00,
"CA001096775","1966-11-27",37.94,21.02,28.00,28.00,
"CA001096775","1966-11-28",14.00,1.94,0.00,0.00,
"CA001096775","1966-11-29",1.04,-18.04,46.00,46.00,
"CA001096775","1966-11-30",6.08,-13.00,0.00,0.00,
"CA001096775","1966-12-01",19.94,1.94,15.00,15.00,
"CA001096775","1966-12-02",32.00,10.94,0.00,0.00,
"CA001096775","1966-12-03",24.98,12.02,0.00,0.00,
"CA001096775","1966-12-04",17.06,10.04,13.00,13.00,
"CA001096775","1966-12-05",8.96,-0.04,0.00,0.00,
"CA001096775","1966-12-06",6.98,-0.04,71.00,71.00,
"CA001096775","1966-12-07",1.94,-20.92,0.00,0.00,
"CA001096775","1966-12-08",5.00,-22.00,0.00,0.00,
"CA001096775","1966-12-09",19.94,-20.02,0.00,0.00,
"CA001096775","1966-12-10",24.98,15.08,30.00,30.00,
"CA001096775","1966-12-11",33.98,10.04,0.00,0.00,
"CA001096775","1966-12-12",33.08,3.92,66.00,66.00,
"CA001096775","1966-12-13",35.96,19.94,0.00,0.00,
"CA001096775","1966-12-14",35.06,1.94,0.00,0.00,
"CA001096775","1966-12-15",42.98,15.08,0.00,0.00,
"CA001096775","1966-12-16",37.04,6.08,0.00,0.00,
"CA001096775","1966-12-17",42.08,5.00,0.00,0.00,
"CA001096775","1966-12-18",46.04,26.06,0.00,0.00,
"CA001096775","1966-12-19",42.08,15.08,0.00,0.00,
"CA001096775","1966-12-20",28.04,15.08,0.00,0.00,
"CA001096775","1966-12-21",24.98,-0.94,0.00,0.00,
"CA001096775","1966-12-22",28.94,-9.94,0.00,0.00,
"CA001096775","1966-12-23",35.96,10.04,0.00,0.00,
"CA001096775","1966-12-24",28.04,-4.00,0.00,0.00,
"CA001096775","1966-12-25",35.06,12.92,0.00,0.00,
"CA001096775","1966-12-26",21.92,10.04,0.00,0.00,
"CA001096775","1966-12-27",28.94,8.96,30.00,30.00,
"CA001096775","1966-12-28",32.00,12.92,38.00,38.00,
"CA001096775","1966-12-29",33.98,10.94,33.00,33.00,
"CA001096775","1966-12-30",32.00,10.94,0.00,0.00,
"CA001096775","1966-12-31",39.02,14.00,0.00,0.00,
"CA001096775","1967-01-01",33.08,19.04,3.00,3.00,
"CA001096775","1967-01-02",24.98,3.92,3.00,3.00,
"CA001096775","1967-01-03",37.94,5.00,0.00,0.00,
"CA001096775","1967-01-04",21.92,1.94,5.00,5.00,
"CA001096775","1967-01-05",15.98,6.08,20.00,20.00,
"CA001096775","1967-01-06",17.06,-7.96,15.00,15.00,
"CA001096775","1967-01-07",28.04,1.04,0.00,0.00,
"CA001096775","1967-01-08",30.92,6.08,20.00,20.00,
"CA001096775","1967-01-09",32.00,24.98,0.00,0.00,
"CA001096775","1967-01-10",32.00,24.08,0.00,0.00,
"CA001096775","1967-01-11",35.96,15.08,0.00,0.00,
"CA001096775","1967-01-12",32.00,10.04,0.00,0.00,
"CA001096775","1967-01-13",30.92,8.96,91.00,91.00,
"CA001096775","1967-01-14",32.00,19.94,109.00,109.00,
"CA001096775","1967-01-15",37.94,21.92,0.00,0.00,
"CA001096775","1967-01-16",32.00,24.08,0.00,0.00,
"CA001096775","1967-01-17",32.00,6.08,0.00,0.00,
"CA001096775","1967-01-18",21.92,-4.00,15.00,15.00,
"CA001096775","1967-01-19",35.96,5.00,0.00,0.00,
"CA001096775","1967-01-20",35.06,5.00,0.00,0.00,
"CA001096775","1967-01-21",32.00,1.04,0.00,0.00,
"CA001096775","1967-01-22",10.04,-9.94,69.00,69.00,
"CA001096775","1967-01-23",5.00,-9.94,23.00,23.00,
"CA001096775","1967-01-24",1.94,-5.08,5.00,5.00,
"CA001096775","1967-01-25",5.00,-23.98,0.00,0.00,
"CA001096775","1967-01-26",6.98,-4.00,48.00,48.00,
"CA001096775","1967-01-27",33.98,3.92,0.00,0.00,
"CA001096775","1967-01-28",37.94,19.94,0.00,0.00,
"CA001096775","1967-01-29",35.96,17.96,0.00,0.00,
"CA001096775","1967-01-30",32.00,-4.00,0.00,0.00,
"CA001096775","1967-01-31",26.96,-13.00,0.00,0.00,
"CA001096775","1967-02-01",35.96,1.94,0.00,0.00,
"CA001096775","1967-02-02",46.94,21.02,0.00,0.00,
"CA001096775","1967-02-03",35.96,19.94,23.00,23.00,
"CA001096775","1967-02-04",41.00,24.08,0.00,0.00,
"CA001096775","1967-02-05",37.94,19.94,0.00,0.00,
"CA001096775","1967-02-06",41.00,19.04,0.00,0.00,
"CA001096775","1967-02-07",37.94,12.02,0.00,0.00,
"CA001096775","1967-02-08",41.00,8.96,0.00,0.00,
"CA001096775","1967-02-09",42.98,24.98,0.00,0.00,
"CA001096775","1967-02-10",41.00,6.98,0.00,0.00,
"CA001096775","1967-02-11",42.98,14.00,0.00,0.00,
"CA001096775","1967-02-12",37.94,28.04,5.00,5.00,
"CA001096775","1967-02-13",35.06,-5.08,0.00,0.00,
"CA001096775","1967-02-14",33.98,-4.00,0.00,0.00,
"CA001096775","1967-02-15",35.96,-2.02,0.00,0.00,
"CA001096775","1967-02-16",32.00,-2.02,0.00,0.00,
"CA001096775","1967-02-17",28.04,1.94,48.00,48.00,
"CA001096775","1967-02-18",35.06,1.94,0.00,0.00,
"CA001096775","1967-02-19",33.98,10.04,0.00,0.00,
"CA001096775","1967-02-20",39.92,-2.02,0.00,0.00,
"CA001096775","1967-02-21",37.94,12.92,0.00,0.00,
"CA001096775","1967-02-22",33.08,3.92,10.00,10.00,
"CA001096775","1967-02-23",37.04,21.02,0.00,0.00,
"CA001096775","1967-02-24",42.08,17.96,0.00,0.00,
"CA001096775","1967-02-25",44.96,17.06,0.00,0.00,
"CA001096775","1967-02-26",39.92,17.96,0.00,0.00,
"CA001096775","1967-02-27",46.04,19.94,36.00,36.00,
"CA001096775","1967-02-28",37.04,28.04,20.00,20.00,
"CA001096775","1967-03-01",35.06,5.00,0.00,0.00,
"CA001096775","1967-03-02",33.98,6.98,0.00,0.00,
"CA001096775","1967-03-03",37.94,-7.06,0.00,0.00,
"CA001096775","1967-03-04",42.98,3.02,0.00,0.00,
"CA001096775","1967-03-05",57.02,8.96,0.00,0.00,
"CA001096775","1967-03-06",39.92,28.04,0.00,0.00,
"CA001096775","1967-03-07",41.00,10.94,0.00,0.00,
"CA001096775","1967-03-08",37.94,24.98,0.00,0.00,
"CA001096775","1967-03-09",28.94,1.04,0.00,0.00,
"CA001096775","1967-03-10",15.98,3.92,3.00,3.00,
"CA001096775","1967-03-11",17.06,1.94,0.00,0.00,
"CA001096775","1967-03-12",15.08,-18.94,0.00,0.00,
"CA001096775","1967-03-13",23.00,-13.00,0.00,0.00,
"CA001096775","1967-03-14",21.02,-7.96,13.00,13.00,
"CA001096775","1967-03-15",19.94,6.08,28.00,28.00,
"CA001096775","1967-03-16",42.08,8.96,0.00,0.00,
"CA001096775","1967-03-17",42.98,-7.96,0.00,0.00,
"CA001096775","1967-03-18",35.06,8.96,0.00,0.00,
"CA001096775","1967-03-19",37.04,19.94,0.00,0.00,
"CA001096775","1967-03-20",44.96,-2.02,0.00,0.00,
"CA001096775","1967-03-21",39.02,8.06,0.00,0.00,
"CA001096775","1967-03-22",46.04,24.08,0.00,0.00,
"CA001096775","1967-03-23",46.04,24.98,0.00,0.00,
"CA001096775","1967-03-24",35.06,12.92,0.00,0.00,
"CA001096775","1967-03-25",32.00,5.00,3.00,3.00,
"CA001096775","1967-03-26",35.06,10.04,0.00,0.00,
"CA001096775","1967-03-27",42.98,17.96,0.00,0.00,
"CA001096775","1967-03-28",39.02,12.02,0.00,0.00,
"CA001096775","1967-03-29",42.08,10.04,43.00,43.00,
"CA001096775","1967-03-30",35.96,-2.92,0.00,0.00,
"CA001096775","1967-03-31",37.04,3.02,0.00,0.00,
"CA001096775","1967-04-01",44.96,-2.92,0.00,0.00,
"CA001096775","1967-04-02",55.94,32.00,0.00,0.00,
"CA001096775","1967-04-03",51.08,24.08,0.00,0.00,
"CA001096775","1967-04-04",42.98,28.94,0.00,0.00,
"CA001096775","1967-04-05",44.06,24.98,0.00,0.00,
"CA001096775","1967-04-06",48.92,10.04,0.00,0.00,
"CA001096775","1967-04-07",44.96,30.02,0.00,0.00,
"CA001096775","1967-04-08",44.96,30.92,0.00,0.00,
"CA001096775","1967-04-09",39.92,23.00,0.00,0.00,
"CA001096775","1967-04-10",46.04,12.92,0.00,0.00,
"CA001096775","1967-04-11",48.92,15.08,0.00,0.00,
"CA001096775","1967-04-12",41.00,28.04,84.00,84.00,
"CA001096775","1967-04-13",42.08,17.06,28.00,28.00,
"CA001096775","1967-04-14",33.98,17.06,0.00,0.00,
"CA001096775","1967-04-15",39.02,10.04,0.00,0.00,
"CA001096775","1967-04-16",42.98,21.02,0.00,0.00,
"CA001096775","1967-04-17",46.04,10.04,0.00,0.00,
"CA001096775","1967-04-18",46.94,24.98,0.00,0.00,
"CA001096775","1967-04-19",44.96,24.08,0.00,0.00,
"CA001096775","1967-04-20",46.04,26.06,0.00,0.00,
"CA001096775","1967-04-21",48.92,19.94,0.00,0.00,
"CA001096775","1967-04-22",48.92,30.02,0.00,0.00,
"CA001096775","1967-04-23",50.00,28.94,0.00,0.00,
"CA001096775","1967-04-24",51.98,28.04,0.00,0.00,
"CA001096775","1967-04-25",51.98,28.04,13.00,0.00,
"CA001096775","1967-04-26",42.98,33.08,3.00,0.00,
"CA001096775","1967-04-27",48.02,24.98,0.00,0.00,
"CA001096775","1967-04-28",51.98,33.98,0.00,0.00,
"CA001096775","1967-04-29",55.04,30.02,0.00,0.00,
"CA001096775","1967-04-30",51.08,19.94,0.00,0.00,
"CA001096775","1967-05-01",62.06,26.96,0.00,0.00,
"CA001096775","1967-05-02",62.96,21.02,0.00,0.00,
"CA001096775","1967-05-03",55.94,26.96,0.00,0.00,
"CA001096775","1967-05-04",60.98,24.08,0.00,0.00,
"CA001096775","1967-05-05",55.94,28.94,0.00,0.00,
"CA001096775","1967-05-06",55.94,37.04,145.00,0.00,
"CA001096775","1967-05-07",51.08,35.96,,0.00,
"CA001096775","1967-05-08",50.00,35.96,,76.00,
"CA001096775","1967-05-09",42.98,30.92,30.00,0.00,
"CA001096775","1967-05-10",50.00,30.02,0.00,0.00,
"CA001096775","1967-05-11",53.96,28.94,0.00,0.00,
"CA001096775","1967-05-12",57.92,24.98,0.00,0.00,
"CA001096775","1967-05-13",53.96,30.02,8.00,0.00,
"CA001096775","1967-05-14",57.92,39.02,15.00,0.00,
"CA001096775","1967-05-15",60.08,33.08,0.00,0.00,
"CA001096775","1967-05-16",60.08,42.98,0.00,0.00,
"CA001096775","1967-05-17",59.00,35.96,3.00,0.00,
"CA001096775","1967-05-18",62.06,28.94,0.00,0.00,
"CA001096775","1967-05-19",64.94,33.08,0.00,0.00,
"CA001096775","1967-05-20",66.92,37.94,0.00,0.00,
"CA001096775","1967-05-21",64.94,35.06,0.00,0.00,
"CA001096775","1967-05-22",71.96,35.96,0.00,0.00,
"CA001096775","1967-05-23",51.98,28.04,69.00,0.00,
"CA001096775","1967-05-24",42.08,33.08,178.00,178.00,
"CA001096775","1967-05-25",59.00,35.06,0.00,0.00,
"CA001096775","1967-05-26",64.04,28.94,0.00,0.00,
"CA001096775","1967-05-27",64.94,30.02,0.00,0.00,
"CA001096775","1967-05-28",64.04,37.94,0.00,0.00,
"CA001096775","1967-05-29",60.08,37.94,0.00,0.00,
"CA001096775","1967-05-30",55.04,32.00,3.00,0.00,
"CA001096775","1967-05-31",60.08,46.04,0.00,0.00,
"CA001096775","1967-06-01",75.02,37.04,0.00,0.00,
"CA001096775","1967-06-02",73.04,41.00,0.00,0.00,
"CA001096775","1967-06-03",80.06,42.08,0.00,0.00,
"CA001096775","1967-06-04",75.92,57.02,0.00,0.00,
"CA001096775","1967-06-05",75.02,30.92,0.00,0.00,
"CA001096775","1967-06-06",71.96,44.96,48.00,0.00,
"CA001096775","1967-06-07",71.96,42.08,0.00,0.00,
"CA001096775","1967-06-08",71.06,50.00,30.00,0.00,
"CA001096775","1967-06-09",53.96,44.06,5.00,0.00,
"CA001096775","1967-06-10",64.94,35.96,0.00,0.00,
"CA001096775","1967-06-11",68.00,33.08,0.00,0.00,
"CA001096775","1967-06-12",69.98,42.08,99.00,0.00,
"CA001096775","1967-06-13",71.06,41.00,0.00,0.00,
"CA001096775","1967-06-14",75.92,46.04,0.00,0.00,
"CA001096775","1967-06-15",66.02,46.94,18.00,0.00,
"CA001096775","1967-06-16",75.02,46.94,0.00,0.00,
"CA001096775","1967-06-17",73.94,44.06,0.00,0.00,
"CA001096775","1967-06-18",75.92,44.96,0.00,0.00,
"CA001096775","1967-06-19",82.04,44.96,0.00,0.00,
"CA001096775","1967-06-20",86.00,44.96,0.00,0.00,
"CA001096775","1967-06-21",80.96,55.94,0.00,0.00,
"CA001096775","1967-06-22",75.02,51.98,0.00,0.00,
"CA001096775","1967-06-23",78.08,44.96,0.00,0.00,
"CA001096775","1967-06-24",80.06,41.00,0.00,0.00,
"CA001096775","1967-06-25",80.06,53.06,0.00,0.00,
"CA001096775","1967-06-26",66.02,51.08,15.00,0.00,
"CA001096775","1967-06-27",71.96,42.98,0.00,0.00,
"CA001096775","1967-06-28",71.06,51.98,0.00,0.00,
"CA001096775","1967-06-29",64.94,35.96,0.00,0.00,
"CA001096775","1967-06-30",78.08,39.02,0.00,0.00,
"CA001096775","1967-07-01",80.06,35.06,0.00,0.00,
"CA001096775","1967-07-02",77.00,50.00,0.00,0.00,
"CA001096775","1967-07-03",82.04,39.92,41.00,0.00,
"CA001096775","1967-07-04",62.06,48.92,112.00,0.00,
"CA001096775","1967-07-05",66.02,39.92,0.00,0.00,
"CA001096775","1967-07-06",62.96,48.02,25.00,0.00,
"CA001096775","1967-07-07",53.96,44.96,64.00,0.00,
"CA001096775","1967-07-08",60.98,44.96,91.00,0.00,
"CA001096775","1967-07-09",66.02,39.92,0.00,0.00,
"CA001096775","1967-07-10",71.06,39.92,0.00,0.00,
"CA001096775","1967-07-11",80.96,48.02,0.00,0.00,